This demonstration page uses our WeatherBlox Daily Observations layout. Learn more.

Left ArrowRight Arrow

34.74481, -87.66753

Hourly Observations for May 27, 2017

Temp ( °F °C ) Dew Point ( °F °C ) Humidity (%) Winds ( mph kmh ) Pressure ( in mb ) Visibility ( mi km ) Precip ( " mm )
12:53 am 00:53 Cloudy 71 21.7 62 16.7 73 73 Calm 29.95 1014 10 16 0.00 0.00
1:53 am 01:53 Cloudy 72 22.2 61 16.1 68 68 S 6 9 29.93 1013 10 16 0.00 0.00
2:53 am 02:53 Clear 71 21.7 61 16.1 71 71 SSW 5 7 29.92 1013 10 16 0.00 0.00
3:53 am 03:53 Partly Cloudy 71 21.7 61 16.1 71 71 S 6 9 29.91 1013 10 16 0.00 0.00
4:53 am 04:53 Clear 70 21.1 61 16.1 73 73 S 7 11 29.92 1013 10 16 0.00 0.00
5:53 am 05:53 Sunny 70 21.1 61 16.1 73 73 SSW 7 11 29.94 1014 10 16 0.00 0.00
6:53 am 06:53 Mostly Sunny 71 21.7 62 16.7 73 73 SSW 6 9 29.96 1015 10 16 0.00 0.00
7:53 am 07:53 Mostly Cloudy 73 22.8 63 17.2 71 71 SSW 6 9 29.99 1016 10 16 0.00 0.00
8:53 am 08:53 Mostly Cloudy 73 22.8 64 17.8 74 74 SSW 5 7 30.00 1016 10 16 0.00 0.00
9:53 am 09:53 Mostly Sunny 78 25.6 67 19.4 69 69 SSW 9 15 29.99 1016 10 16 0.00 0.00
10:45 am 10:45 Cloudy 80 26.7 68 20 67 67 SSW 6 9 29.97 1015 10 16 0.00 0.00
10:53 am 10:53 Cloudy 80 26.7 68 20 67 67 SW 10 17 29.98 1015 10 16 0.00 0.00
11:53 am 11:53 Mostly Cloudy 83 28.3 69 20.6 63 63 WSW 14 22 29.98 1015 10 16 0.00 0.00
12:53 pm 12:53 Mostly Cloudy 85 29.4 70 21.1 61 61 SW 14 22 29.97 1015 10 16 0.00 0.00
1:31 pm 13:31 Mostly Cloudy 84 28.9 70 21.1 63 63 SW 13 20 29.94 1014 10 16 0.00 0.00
1:51 pm 13:51 Mostly Cloudy 84 29 70 21 62 62 SW 13 20 29.94 1014 10 16 0.00 0.00
1:53 pm 13:53 Partly Cloudy 86 30 70 21.1 59 59 SW 16 26 29.94 1014 10 16 0.00 0.00
2:53 pm 14:53 Mostly Cloudy 87 30.6 70 21.1 57 57 SW 14 22 29.92 1013 10 16 0.00 0.00
3:53 pm 15:53 Mostly Cloudy 86 30 70 21.1 59 59 SW 12 19 29.89 1012 10 16 0.00 0.00
4:53 pm 16:53 Mostly Cloudy 86 30 70 21.1 59 59 WSW 10 17 29.89 1012 10 16 0.00 0.00
5:53 pm 17:53 Partly Cloudy 87 30.6 71 21.7 59 59 WSW 10 17 29.89 1012 10 16 0.00 0.00
6:04 pm 18:04 Mostly Cloudy 87 30.6 71 21.7 59 59 SW 12 19 29.85 1011 10 16 0.00 0.00
6:53 pm 18:53 Mostly Sunny 84 28.9 72 22.2 67 67 SSW 9 15 29.87 1011 10 16 0.00 0.00
7:53 pm 19:53 Sunny 81 27.2 72 22.2 74 74 SSW 7 11 29.88 1012 10 16 0.00 0.00
8:53 pm 20:53 Clear 79 26.1 72 22.2 79 79 S 3 6 29.88 1012 10 16 0.00 0.00
9:53 pm 21:53 Partly Cloudy 77 25 72 22.2 85 85 SSE 3 6 29.89 1012 10 16 0.00 0.00
10:00 pm 22:00 Mostly Cloudy with Nearby Thunderstorms 77 25 72 22.2 85 85 SSE 5 7 29.88 1012 10 16 0.00 0.00
10:17 pm 22:17 Mostly Cloudy 76 24.4 72 22.2 88 88 SE 3 6 29.88 1012 10 16 0.00 0.00
10:53 pm 22:53 Mostly Cloudy with Nearby Thunderstorms 73 22.8 63 17.2 71 71 NE 17 28 29.88 1012 10 16 0.00 0.00
11:04 pm 23:04 Cloudy 72 22.2 63 17.2 73 73 NNW 10 17 29.88 1012 10 16 0.00 0.00
11:17 pm 23:17 Cloudy with Nearby Thunderstorms 70 21.1 62 16.7 76 76 NNW 9 15 29.91 1013 10 16 0.00 0.00
11:32 pm 23:32 Cloudy 69 20.6 62 16.7 78 78 ENE 17 28 29.91 1013 10 16 0.00 0.00
11:35 pm 23:35 Cloudy with Nearby Thunderstorms 69 20.6 62 16.7 78 78 ENE 12 19 29.91 1013 10 16 0.00 0.00
11:53 pm 23:53 Cloudy with Thunderstorms 67 19.4 63 17.2 87 87 N 13 20 29.90 1013 9 14 0.09 2.29

Powered by AerisWeather